Regional Weather Roundup
Issued by NWS Wilmington, NC

Home | Current Version | Previous Version | Text Only | Print | Product List | Glossary On
Versions: 1 2 3 4 5 6 7 8 9 10 11 12 13 14 15 16 17 18 19 20 21 22 23 24 25 26 27 28 29 30 31 32 33 34 35 36 37 38 39 40 41 42 43 44 45 46 47 48 49 50
000
ASUS42 KILM 261513
RWRILM
RWRILM
REGIONAL HOURLY WEATHER ROUNDUP
NATIONAL WEATHER SERVICE WILMINGTON NC
1100 AM EDT FRI MAY 26 2017

NOTE: "FAIR" INDICATES FEW OR NO CLOUDS BELOW 12,000 FEET WITH NO
SIGNIFICANT WEATHER AND/OR OBSTRUCTIONS TO VISIBILITY.

...............WFO WILMINGTON COUNTY WARNING AREA...............

......COASTAL NC AND SC COUNTIES......

CITY           SKY/WX    TMP DP  RH WIND       PRES   REMARKS
WILMINGTON     SUNNY     77  56  48 W14       29.94F
N MYRTLE BEACH SUNNY     76  55  48 W9        29.97S
MYRTLE BEACH   SUNNY     75  55  50 W12       30.00R

......INLAND NC AND SC COUNTIES.......

CITY           SKY/WX    TMP DP  RH WIND       PRES   REMARKS
LUMBERTON      SUNNY     76  56  49 W12       29.95F
ELIZABETHTOWN  SUNNY     78  55  45 W10G16    29.96S
WHITEVILLE     SUNNY     75  56  51 W7        29.96S
FLORENCE       SUNNY     75  55  49 W12       29.98F
DARLINGTON     SUNNY     75  56  51 W8        29.98F
KINGSTREE      FAIR      73  54  49 W8        30.00S
HARTSVILLE     FAIR      73  52  46 W6        29.98F
BENNETTSVILLE  FAIR      81  54  39 W8        29.96F
CONWAY         FAIR      73  55  53 W6        29.99S HAZE
GEORGETOWN     NOT AVBL
MARION         FAIR      73  55  53 W10G18    29.98S

....................REST OF NORTH CAROLINA......................

.........EASTERN NC.........

CITY           SKY/WX    TMP DP  RH WIND       PRES   REMARKS
CAPE HATTERAS  SUNNY     77  59  53 W10G23    29.88S
JACKSONVILLE   SUNNY     78  58  49 W9G16     29.93F
MOREHEAD CITY  SUNNY     78  57  48 W20       29.91S
KENANSVILLE    SUNNY     77  57  50 W15G21    29.93S
NEW BERN       SUNNY     78  58  49 W12G22    29.92S
ELIZABETH CITY SUNNY     75  59  57 W18G29    29.83S

.........CENTRAL NC.........

CITY           SKY/WX    TMP DP  RH WIND       PRES   REMARKS
RALEIGH DURHAM MOSUNNY   73  56  54 W15G21    29.92F
ROCKY MOUNT    SUNNY     74  55  51 W12G18    29.90S
ROANOKE RAPIDS NOT AVBL
FAYETTEVILLE   SUNNY     78  54  43 W13       29.94S
HOFFMAN        SUNNY     76  54  46 W10       29.95F

.........WESTERN NC.........

CITY           SKY/WX    TMP DP  RH WIND       PRES   REMARKS
CHARLOTTE      MOSUNNY   74  52  46 W8        29.98S
GREENSBORO     PTSUNNY   72  55  55 NW14      29.94R
HICKORY        NOT AVBL
BOONE          NOT AVBL
ASHEVILLE      NOT AVBL

.....................REST OF SOUTH CAROLINA.....................

.........EASTERN SC.........

CITY           SKY/WX    TMP DP  RH WIND       PRES   REMARKS
CHARLESTON     MOSUNNY   77  53  43 W10       30.00F
BEAUFORT MCAS  SUNNY     77  55  46 W9        30.03F
HILTON HEAD    NOT AVBL

.........CENTRAL SC.........

CITY           SKY/WX    TMP DP  RH WIND       PRES   REMARKS
COLUMBIA       MOSUNNY   76  51  41 W7        29.99F
ORANGEBURG     SUNNY     75  55  49 VRB6      30.01F
SUMTER SHAW    SUNNY     75  55  49 W7        29.97F

.........WESTERN SC.........

CITY           SKY/WX    TMP DP  RH WIND       PRES   REMARKS
GREENVILLE     NOT AVBL
ROCK HILL      SUNNY     72  54  53 SW7       29.99S
ANDERSON       SUNNY     72  51  47 W10       30.02R
CLEMSON        NOT AVBL
GREENWOOD      SUNNY     73  51  46 W7        30.02S


...................COASTAL AND OFFSHORE REPORTS..................

................LOCAL PIERS AND NC RESERVE................


STATION/POSITION TIME  SKY/WX   TEMP    WIND        PRES    VSBY
                                AIR SEA DIR/SP/G
                 (UTC)          (F)     (DEG/KT/KT) (MB)    (MI)
JOHNY MRCER PIER 1448            75 75  270/  8/ 14 1013.0F
NC RESRV MASNBRO 1345            73     290/  3     1015.0
OCEAN CREST PIER NOT AVBL
SPRINGMAID  PIER 1448                               1014.7S


................COASTAL AND OFFSHORE BUOYS................


STATION/POSITION TIME  SKY/WX   TEMP    WIND        PRES    VSBY
                                AIR SEA DIR/SP/G
                 (UTC)          (F)     (DEG/KT/KT) (MB)    (MI)
DIMNDSHOAL 41025 1450            72 79  270/ 19/ 23 1011.5F
WVE H/P(F/S)=  7/ 8 SWL H/P/D(F/S/D)=  3/220/ 8

CAPE LOOKOUT     1400            72     270/ 16/ 19 1012.6F
ONSLOW BAY 41036 NOT AVBL
ONSLOW BAY 41064 1408            72 78  280/ 16/ 19 1014.1R
ONSLOW BAY 41159 1443               78                N/A
WVE H/P(F/S)=  6/ 8

MASNBO INL 41110 1459               74                N/A
WVE H/P(F/S)=  3/ 8

WILM HARBR 41108 1447               76                N/A
WVE H/P(F/S)=  4/ 6

27SE WRITB 41037 1408            71 75  250/ 14/ 17 1013.8S
FRYING PAN 41013 1450            72 75  270/ 14/ 16 1014.6F
WVE H/P(F/S)=  5/ 8 SWL H/P/D(F/S/D)=  3/180/ 8

SUNST NRSH 41024 1408            71 74  290/  6/  8 1014.8R
CAPRS NRSH 41029 1408            77 76  290/ 12/ 16 1016.0F
EDISTO     41004 1450            72 74  270/ 10/ 12 1016.0F
WVE H/P(F/S)=  3/ 5 SWL H/P/D(F/S/D)=  2/220/ 5



..........OFFSHORE BUOYS BEYOND 100 NM OFFSHORE...........
.....IN A TRIANGLE---HAT TO BERMUDA TO BAHAMAS TO HAT.....


STATION/POSITION TIME  SKY/WX   TEMP    WIND        PRES    VSBY
                                AIR SEA DIR/SP/G
                 (UTC)          (F)     (DEG/KT/KT) (MB)    (MI)
150E HAT   41001 1500            76 77  260/ 23/ 29 1012.3
W BERMUDA  41048 1500            76 75  270/ 10/ 12 1016.8
ATLANTIC S 41049 1450            76 77  120/ 12/ 16 1022.9R
WVE H/P(F/S)=  3/ 6 SWL H/P/D(F/S/D)=  2/ 40/10

E BAHAMAS  41046 1450            79 80  120/ 12/ 14 1020.8F
WVE H/P(F/S)=  4/ 6 SWL H/P/D(F/S/D)=  3/140/ 6

NE BAHAMAS 41047 1500            79 78  200/ 16/ 17 1019.6
120E CANVRL41010 1450            78 78  290/ 10/ 14 1017.5S
WVE H/P(F/S)=  4/ 7 SWL H/P/D(F/S/D)=  3/ 60/ 7


END



USA.gov is the U.S. government's official web portal to all federal, state and local government web resources and services.